Terminal Aerodrome Forecast
Issued by NWS Raleigh/Durham, NC

Home | Current Version | Previous Version | Text Only | Print | Product List | Glossary On
Versions: 1 2 3 4 5 6 7 8 9 10 11 12 13 14 15 16 17 18 19 20 21 22 23 24 25 26 27 28 29 30 31 32 33 34 35 36 37 38 39 40 41 42
000
FTUS42 KRAH 241120
TAFFAY
TAF
KFAY 241120Z 2412/2512 22006KT P6SM FEW005 BKN050 BKN100
     FM241500 22010KT P6SM VCTS BKN035CB BKN150
     FM242300 23006KT P6SM BKN250=

USA.gov is the U.S. government's official web portal to all federal, state and local government web resources and services.